Location: Newark
(46.3833°N, 6.2000°E)
Time: 02:15:39
(UTC+00:00)

N. Korean satellite - Pass Details

Date: 07 March 2020
Orbit: 454 x 507 km, 97.2° (Epoch: 08 April)

Event Time Altitude Azimuth Distance (km) Brightness Sun altitude
Rises 04:56:52 0° 19° (NNE) 2,603 10.6 -12.2°
Reaches altitude 10° 04:59:05 10° 28° (NNE) 1,706 9.8 -11.8°
Maximum altitude 05:02:32 38° 97° (E) 771 8.3 -11.2°
Drops below altitude 10° 05:05:54 10° 167° (SSE) 1,664 9.4 -10.6°
Sets 05:08:02 0° 176° (S) 2,528 10.2 -10.3°
